Flag for United Kingdom Weather past 2 weeks in Stockport, England, United Kingdom

Now
55 °F

Drizzle. Partly sunny.


Feels Like: 53 °F
Forecast: 43 / 64 °F
Wind: 8 mph from West

Location: Manchester Airport

Current Time: May 22, 2015 at 12:15:40 PM

Latest Report: May 22, 2015 at 11:50 AM


Visibility: 2 mi

Pressure: 30.24 "Hg

Humidity: 100%

Dew point: 55 °F

Location of StockportLocation

Historic Weather in Stockport — Graph

°F

Stockport temperature yesterday

Maximum temperature yesterday: 59 °F (at 2:20 PM)
Minimum temperature yesterday: 45 °F (at 3:50 AM)
Average temperature yesterday: 53 °F

Past Weeks' High & Low Weather Summary

 TemperatureHumidityPressure
High66 °F (May 11, 2:20 PM)100% (May 8, 4:50 PM)30.30 "Hg (May 8, 4:50 PM)
Low41 °F (May 8, 4:20 AM)37% (May 11, 2:20 PM)29.45 "Hg (May 19, 2:20 AM)
Average51 °F75%29.99 "Hg
* Reported May 7 10:20 AM — May 22 10:50 AM, Stockport, Weather by CustomWeather, © 2015

Note: Actual official high and low records may vary slightly from our data, if they occured in-between our weather recording intervals... More about our weather records

Advertising

Stockport weather history for previous 24 hours

 ConditionsComfort  
Time TempWeatherWind HumidityBarometerVisibility
10:50 AM
Fri, May 22
57 °FDrizzle. Partly sunny.8 mph94%30.24 "HgN/A
10:20 AM57 °FPartly sunny.7 mph88%30.27 "HgN/A
9:50 AM55 °FDrizzle. Partly sunny.6 mph94%30.27 "HgN/A
9:20 AM55 °FPartly sunny.7 mph100%30.27 "HgN/A
8:50 AM54 °FPartly sunny.7 mph100%30.24 "HgN/A
8:20 AM54 °FScattered showers. Partly sunny.6 mph94%30.24 "HgN/A
7:50 AM52 °FDrizzle. Partly sunny.5 mph100%30.24 "Hg4 mi
7:20 AM52 °FDrizzle. Overcast.6 mph94%30.24 "Hg2 mi
6:50 AM52 °FDrizzle. Partly sunny.6 mph88%30.24 "HgN/A
6:20 AM52 °FPartly sunny.7 mph88%30.24 "HgN/A
5:50 AM52 °FPassing clouds.5 mph82%30.24 "HgN/A
5:20 AM52 °FPassing clouds.6 mph82%30.24 "HgN/A
4:50 AM52 °FPassing clouds.6 mph82%30.24 "HgN/A
4:20 AM52 °FOvercast.6 mph82%30.24 "HgN/A
3:50 AM52 °FOvercast.6 mph82%30.27 "HgN/A
3:20 AM52 °FOvercast.6 mph82%30.27 "HgN/A
2:50 AM52 °FOvercast.6 mph82%30.27 "HgN/A
2:20 AM52 °FOvercast.6 mph82%30.27 "HgN/A
1:50 AM52 °FOvercast.6 mph82%30.27 "HgN/A
1:20 AM52 °FPassing clouds.5 mph82%30.27 "HgN/A
12:50 AM52 °FPassing clouds.5 mph82%30.27 "HgN/A
12:20 AM54 °FOvercast.5 mph77%30.27 "HgN/A
11:50 PM
Thu, May 21
54 °FPassing clouds.3 mph77%30.30 "HgN/A
11:20 PM54 °FMostly cloudy.3 mph77%30.30 "HgN/A
10:20 PM54 °FClear.3 mph72%30.30 "Hg10 mi
9:50 PM55 °FSunny.2 mph63%30.30 "Hg10 mi
9:20 PM55 °FSunny.2 mph63%30.30 "Hg10 mi
8:50 PM55 °FSunny.5 mph63%30.30 "Hg10 mi
8:20 PM55 °FSunny.3 mph67%30.27 "Hg10 mi
7:50 PM55 °FSunny.7 mph67%30.27 "Hg10 mi
7:20 PM57 °FPassing clouds.9 mph67%30.27 "HgN/A
6:50 PM57 °FPassing clouds.7 mph67%30.27 "HgN/A
6:20 PM57 °FPassing clouds.8 mph63%30.27 "HgN/A
5:50 PM57 °FPassing clouds.8 mph63%30.27 "HgN/A
5:20 PM57 °FPassing clouds.12 mph63%30.27 "HgN/A
4:50 PM59 °FPassing clouds.10 mph63%30.27 "HgN/A
4:20 PM57 °FPassing clouds.10 mph63%30.27 "HgN/A
3:50 PM57 °FPassing clouds.10 mph63%30.27 "HgN/A
3:20 PM59 °FScattered clouds.12 mph59%30.27 "HgN/A
2:50 PM59 °FScattered clouds.12 mph59%30.27 "HgN/A
2:20 PM59 °FScattered clouds.13 mph59%30.27 "HgN/A
1:50 PM57 °FPassing clouds.13 mph63%30.27 "HgN/A
1:20 PM55 °FScattered clouds.10 mph67%30.27 "HgN/A
12:50 PM54 °FScattered clouds.9 mph72%30.27 "HgN/A
12:20 PM54 °FLight rain. Scattered clouds.13 mph67%30.27 "HgN/A
Weather by CustomWeather, © 2015

See weather overviewHow to use our weather pages